SCP
1 1 1 1 1 0 0 0 0 0 0 0 0 0 0 0 0 0 0 0 0 0 0 0 0 0 0 0 0 0 0 0 0 0 0 0 0 0 0 0 0 0 0
1 1 1 1 1 0 0 0 0 0 0 0 0 0 0 0 0 0 0 0 0 0 0 0 0 0 0 0 0 0 0 0 0 0 0 0 0 0 0 0 0 0 0
1 1 1 1 0 0 0 0 0 0 0 0 0 0 0 0 0 0 0 0 0 0 0 0 0 0 0 0 0 0 0 0 0 0 0 0 0 0 0 0 0 0 0
1 1 1 1 0 0 0 0 0 0 0 0 0 0 0 0 0 0 0 0 0 0 0 0 0 0 0 0 0 0 0 0 0 0 0 0 0 0 0 0 0 0 0
0 0 0 0 0 0 0 0 0 0 0 0 0 0 0 0 0 0 0 0 0 0 0 0 0 0 0 0 0 0 0 0 0 0 0 0 0 0 0 0 0 0 0
0 0 0 0 0 0 0 0 0 0 0 0 0 0 0 0 0 0 0 0 0 0 0 0 0 0 0 0 0 0 0 0 0 0 0 0 0 0 0 0 0 0 0
0 0 0 0 0 0 0 0 0 0 0 0 0 0 0 0 0 0 0 0 0 0 0 0 0 0 0 0 0 0 0 0 0 0 0 0 0 0 0 0 0 0 0
0 0 0 0 0 0 0 0 0 0 0 0 0 0 0 0 0 0 0 0 0 0 0 0 0 0 0 0 0 0 0 0 0 0 0 0 0 0 0 0 0 0 0
0 0 0 0 0 0 0 0 0 0 0 0 0 0 0 0 0 0 0 0 0 0 0 0 0 0 0 0 0 0 0 0 0 0 0 0 0 0 0 0 0 0 0
0 0 0 0 0 0 0 0 0 0 0 0 0 0 0 0 0 0 0 0 0 0 0 0 0 0 0 0 0 0 0 0 0 0 0 0 0 0 0 0 0 0 0
0 0 0 0 0 0 0 0 0 0 0 0 0 0 0 0 0 0 0 0 0 0 0 0 0 0 0 0 0 0 0 0 0 0 0 0 0 0 0 0 0 0 0
0 0 0 0 0 0 0 0 0 0 0 0 0 0 0 0 0 0 0 0 0 0 0 0 0 0 0 0 0 0 0 0 0 0 0 0 0 0 0 0 0 0 0
0 0 0 0 0 0 0 0 0 0 0 0 0 0 0 0 0 0 0 0 0 0 0 0 0 0 0 0 0 0 0 0 0 0 0 0 0 0 0 0 0 0 0
0 0 0 0 0 0 0 0 0 0 0 0 0 0 0 0 0 0 0 0 0 0 0 0 0 0 0 0 0 0 0 0 0 0 0 0 0 0 0 0 0 0 0
0 0 0 0 0 0 0 0 0 0 0 0 0 0 0 0 0 0 0 0 0 0 0 0 0 0 0 0 0 0 0 0 0 0 0 0 0 0 0 0 0 0 0
0 0 0 0 0 0 0 0 0 0 0 0 0 0 0 0 0 0 0 0 0 0 0 0 0 0 0 0 0 0 0 0 0 0 0 0 0 0 0 0 0 0 0
0 0 0 0 0 0 0 0 0 0 0 0 0 0 0 0 0 0 0 0 0 0 0 0 0 0 0 0 0 0 0 0 0 0 0 0 0 0 0 0 0 0 0
0 0 0 0 0 0 0 0 0 0 0 0 0 0 0 0 0 0 0 0 0 0 0 0 0 0 0 0 0 0 0 0 0 0 0 0 0 0 0 0 0 0 0
0 0 0 0 0 0 0 0 0 0 0 0 0 0 0 0 0 0 0 0 0 0 0 0 0 0 0 0 0 0 0 0 0 0 0 0 0 0 0 0 -0 -0 -0
0 0 0 0 0 0 0 0 0 0 0 0 0 0 0 0 0 0 0 0 0 0 0 0 0 0 0 0 0 0 0 0 0 0 0 0 0 0 0 0 -0 -0 -0
0 0 0 0 0 0 0 0 0 0 0 0 0 0 0 0 0 0 0 0 0 0 0 0 0 0 0 0 0 0 0 0 0 0 0 0 0 0 0 0 0 0 -0
0 0 0 0 0 0 0 0 0 0 0 0 0 0 0 0 0 0 0 0 0 0 0 0 0 0 0 0 0 0 0 0 0 0 0 0 0 0 0 0 0 0 0
0 0 0 0 0 0 0 0 0 0 0 0 0 0 0 0 0 0 0 0 0 0 0 0 0 0 0 0 0 0 0 0 0 0 0 0 0 0 0 0 0 0 0
0 0 0 0 0 0 0 0 0 0 0 0 0 0 0 0 0 0 0 0 0 0 0 0 0 0 0 0 0 0 0 0 0 0 0 0 0 0 0 0 0 0 0
0 0 0 0 0 0 0 0 0 0 0 0 0 0 0 0 0 0 0 0 0 0 0 0 0 0 0 0 0 0 0 0 0 0 0 0 0 0 0 0 0 0 0
0 0 0 0 0 0 0 0 0 0 0 0 0 0 0 0 0 0 0 0 0 0 0 0 0 0 0 0 0 0 0 0 0 0 0 0 0 0 0 0 0 0 0
Wind_Speed
1 1 1 1 2 2 2 3 3 3 4 4 4 4 5 4 4 4 1 4 2 4 6 7 8 9 10 10 10 11 12 12 12 11 11 10 10 10 10 9 9 9 8
1 1 1 1 2 2 2 3 3 3 3 3 4 3 4 4 3 4 4 2 3 3 5 6 7 9 9 9 9 10 12 13 13 12 12 11 11 11 10 10 10 9 8
2 2 1 1 2 2 3 3 4 3 3 3 4 3 3 3 3 3 4 3 2 3 4 4 5 6 7 9 9 10 11 12 14 14 13 12 11 11 11 10 10 9 9
2 1 1 1 2 3 3 3 4 3 3 3 2 2 2 1 2 2 2 2 2 2 1 1 2 3 5 7 8 8 10 10 12 13 14 13 12 11 11 10 9 9 9
3 2 2 2 3 3 3 3 2 3 3 2 2 1 2 2 1 2 2 2 2 2 2 0 2 2 3 5 6 7 7 8 9 11 12 12 12 11 11 10 10 10 10
3 3 1 2 3 2 2 2 2 2 2 2 2 1 1 1 1 1 2 1 2 2 2 3 2 1 2 3 3 4 6 6 6 7 9 10 11 11 11 11 11 10 10
4 3 2 2 3 2 3 3 3 2 2 1 3 2 1 1 1 1 2 2 2 3 3 3 2 2 1 1 1 2 4 5 6 7 7 7 8 10 11 11 11 10 10
4 3 4 3 2 2 2 2 2 3 2 2 3 3 3 3 2 2 2 3 3 3 4 5 4 4 3 2 2 2 2 3 5 7 8 8 9 10 11 11 12 11 11
5 5 4 4 3 2 2 2 2 3 3 2 3 3 3 2 2 2 3 3 4 4 4 4 5 5 5 3 2 3 4 4 6 8 9 9 10 11 12 12 12 12 12
6 5 4 4 3 3 3 3 3 3 3 3 2 3 3 3 2 2 2 3 4 5 5 4 5 5 5 4 5 7 7 7 8 9 10 10 11 11 12 12 11 11 12
5 5 5 4 4 3 4 4 3 3 2 3 2 2 2 2 3 2 2 2 3 5 5 5 4 5 5 5 4 8 9 8 9 10 10 11 10 10 11 11 11 11 11
4 7 6 5 5 4 4 3 3 3 3 2 2 2 2 2 2 2 2 2 3 3 5 5 5 5 5 5 7 11 12 11 10 10 11 10 10 10 10 11 11 10 10
5 7 6 6 5 5 5 4 3 3 3 2 2 2 2 2 2 1 2 2 3 3 3 4 5 5 5 5 6 11 13 12 12 11 10 10 10 10 10 10 10 9 9
6 6 6 6 6 5 5 4 3 3 3 2 2 2 2 1 2 2 2 3 4 3 3 4 3 4 4 5 7 7 10 13 13 12 12 11 12 12 11 11 10 10 10
5 6 6 6 6 6 5 4 4 4 3 3 2 1 1 0 1 1 2 2 3 4 4 3 2 3 3 5 6 6 8 13 13 12 12 12 12 12 11 11 10 9 9
6 6 7 6 6 6 6 5 5 5 5 4 3 3 2 1 1 0 1 1 1 2 4 3 3 3 4 5 6 6 8 11 11 10 10 9 9 9 9 9 8 7 7
6 6 6 6 6 6 6 6 6 6 6 5 4 4 4 3 1 1 1 2 2 4 6 5 4 4 4 5 5 5 5 5 7 10 9 8 7 7 7 6 6 5 5
6 6 6 6 7 7 6 7 6 7 7 7 6 6 5 4 4 3 2 4 4 5 7 9 5 4 5 5 5 4 4 4 5 9 8 7 6 5 5 4 4 4 4
6 6 6 6 6 6 6 7 7 7 7 7 7 6 6 6 5 4 4 5 5 6 6 8 6 4 4 4 4 4 5 3 4 7 7 7 6 5 4 5 5 5 5
6 6 7 7 7 7 7 7 7 7 8 8 8 7 7 7 6 5 5 6 6 7 7 7 6 5 5 5 4 4 4 3 3 4 4 5 6 7 6 6 6 6 6
7 7 7 7 7 7 8 8 6 7 8 8 8 8 9 9 10 7 5 6 6 6 6 6 6 6 5 4 4 3 3 3 3 2 3 5 6 5 7 9 9 8 8
7 7 7 8 9 8 9 10 8 8 8 8 8 8 8 9 10 10 10 9 7 5 6 5 5 6 5 4 3 2 2 2 3 3 2 2 3 3 4 4 6 8 8
7 7 7 8 9 9 10 10 9 7 8 8 7 7 7 7 7 8 9 8 10 8 5 4 6 5 5 4 2 2 2 1 1 1 2 1 2 2 3 3 8 7 8
6 6 6 7 8 9 10 9 8 6 8 8 8 8 8 8 8 5 7 8 8 7 5 5 5 4 4 3 1 1 1 2 3 2 1 2 2 2 2 2 9 9 9
5 5 6 6 7 8 10 10 9 6 6 7 8 8 7 8 8 6 5 7 7 6 7 7 6 5 4 2 3 2 2 2 1 2 1 2 2 2 3 3 6 11 11
4 4 6 6 7 7 8 10 10 4 5 5 6 7 10 8 7 7 4 5 6 5 4 5 4 4 4 3 3 3 3 2 1 0 1 2 3 3 3 2 2 4 8
Wind_Direction
271 271 286 313 291 285 263 263 266 268 265 257 259 263 271 274 279 277 216 145 193 237 238 232 227 224 223 222 221 222 221 219 216 213 211 208 204 198 194 190 187 184 184
343 308 293 304 297 293 298 282 276 268 263 267 266 262 268 273 272 283 284 189 175 222 243 238 231 225 220 219 223 224 221 220 218 216 213 210 204 198 195 192 192 186 180
349 317 314 299 317 300 282 271 275 265 257 251 253 257 260 274 284 283 285 298 253 209 229 237 231 222 218 219 224 228 227 223 220 216 212 208 207 203 196 192 188 182 176
18 323 325 353 323 284 269 262 258 261 261 262 270 285 280 262 276 286 276 279 295 287 225 227 247 235 226 222 223 226 229 227 223 216 210 205 203 199 191 184 182 175 169
32 7 9 7 305 289 280 279 281 283 271 268 268 263 283 282 292 294 311 313 330 320 312 260 229 255 256 237 225 221 219 221 217 213 207 201 196 190 183 178 175 171 166
21 357 355 355 316 307 304 307 296 280 281 269 274 295 306 314 316 348 320 335 354 340 329 320 293 262 265 268 248 225 210 202 201 197 200 197 191 187 184 178 174 169 164
22 12 353 0 338 334 327 311 296 272 262 251 254 234 210 211 49 30 10 2 17 14 7 353 342 316 284 283 274 224 206 198 187 180 174 168 173 176 173 170 169 169 161
24 24 12 357 356 324 319 319 307 292 273 253 272 265 228 192 133 64 55 44 28 27 28 24 18 12 359 3 39 88 138 172 173 163 154 146 144 147 148 145 139 136 135
40 31 19 8 355 331 353 333 319 295 281 266 266 276 272 243 141 108 67 53 42 38 31 28 29 24 23 24 18 62 86 96 121 130 127 126 128 129 132 133 132 133 133
44 38 28 21 2 358 356 330 350 307 288 278 265 261 278 298 246 157 117 78 56 44 38 35 32 30 30 38 51 62 76 93 110 119 119 120 122 125 127 128 129 132 131
44 34 30 24 15 8 10 355 341 327 308 299 299 290 274 260 252 224 181 135 83 51 44 42 42 40 35 42 50 67 74 82 98 108 110 115 122 127 131 133 136 136 136
45 35 30 23 18 14 8 354 343 343 335 317 298 289 281 271 245 233 183 143 108 71 54 43 41 43 47 55 67 75 77 84 89 98 103 107 115 124 132 136 139 140 139
41 32 25 22 21 16 6 359 360 357 348 334 315 301 294 290 289 260 169 149 123 101 78 54 40 44 51 56 72 80 82 83 87 93 98 103 108 114 116 121 125 128 132
39 30 24 23 22 17 13 8 10 9 1 355 344 320 291 275 255 230 189 161 142 126 99 82 55 48 58 67 64 70 86 86 85 84 84 89 94 97 97 96 100 105 110
39 35 29 25 22 19 18 13 27 20 14 8 5 348 316 308 251 219 191 190 176 151 123 109 90 65 75 78 67 80 86 88 88 84 83 84 86 89 92 93 95 98 103
41 35 33 30 30 27 26 25 35 32 34 33 25 25 9 20 54 144 169 171 205 141 120 109 101 91 83 94 87 87 91 98 92 91 91 91 95 98 100 102 106 110 113
40 38 34 33 37 33 32 35 37 37 42 42 39 47 46 38 47 94 117 123 115 116 116 111 106 104 99 98 98 98 104 109 105 102 102 103 103 104 107 114 120 124 127
44 44 44 42 43 42 38 39 38 39 43 45 44 48 50 61 62 60 82 98 98 104 122 121 118 115 108 110 107 110 109 106 108 109 111 113 118 125 135 142 150 155 157
50 47 46 45 43 42 44 47 46 44 46 47 47 48 51 64 69 71 79 94 104 109 112 121 120 118 118 119 124 117 110 112 126 134 147 154 155 160 165 170 176 183 191
51 48 45 44 41 40 42 49 55 54 53 54 54 53 52 57 63 76 87 97 107 114 119 123 126 132 129 135 139 135 137 150 142 147 151 162 165 184 189 192 196 201 208
52 51 52 50 46 45 30 25 54 62 59 61 64 65 64 62 52 49 69 93 112 122 128 128 128 128 129 144 144 150 128 139 147 165 179 179 178 191 188 199 206 208 216
51 52 53 54 51 45 21 13 18 61 59 60 64 73 83 78 77 70 65 64 67 94 106 116 120 124 131 133 127 142 142 155 155 160 215 194 188 199 201 198 165 188 216
58 55 54 57 59 47 26 19 11 44 58 57 58 61 68 76 82 91 93 98 78 67 68 83 103 108 120 114 129 147 127 72 64 126 243 220 203 218 218 145 158 197 221
63 58 54 56 62 51 28 16 354 57 60 58 60 63 69 68 55 57 91 88 84 75 66 71 81 82 84 82 109 129 161 187 193 185 239 267 243 248 237 190 175 202 222
71 70 63 57 58 55 28 11 353 71 69 66 63 54 54 71 39 11 81 91 90 91 88 81 72 76 67 28 330 274 237 247 202 153 189 281 282 276 261 234 186 199 218
81 79 73 59 54 52 34 15 351 48 67 77 84 83 64 48 29 11 65 84 88 87 95 116 128 163 172 170 224 284 306 309 313 314 92 290 296 294 279 250 237 216 225